This is the latest recevied weather packets stored in our database for station/object M0XDC-10. If no packets are shown the sender has not sent any weather packets the latest 1 day(s).
| Time | Temp. | Humidity | Pressure | Rain* | Wind** | Luminosity | Snow |
|---|---|---|---|---|---|---|---|
| 1778347810 | 28.33° C | 23% | 1017.3 hPa | - | - | - | - |
| 1778346910 | 28.33° C | 24% | 1017.5 hPa | - | - | - | - |
| 1778346009 | 28.33° C | 24% | 1017.6 hPa | - | - | - | - |
| 1778345143 | 27.78° C | 25% | 1017.6 hPa | - | - | - | - |
| 1778345108 | 27.78° C | 25% | 1017.6 hPa | - | - | - | - |
| 1778344239 | 27.78° C | 27% | 1017.7 hPa | - | - | - | - |
| 1778344208 | 27.78° C | 27% | 1017.7 hPa | - | - | - | - |
| 1778343308 | 27.78° C | 27% | 1017.7 hPa | - | - | - | - |
| 1778342408 | 27.22° C | 27% | 1017.8 hPa | - | - | - | - |
| 1778341507 | 27.22° C | 26% | 1017.9 hPa | - | - | - | - |
| 1778340638 | 26.67° C | 27% | 1017.7 hPa | - | - | - | - |
| 1778340607 | 26.67° C | 27% | 1017.7 hPa | - | - | - | - |
| 1778339738 | 26.67° C | 27% | 1017.7 hPa | - | - | - | - |
| 1778339707 | 26.67° C | 27% | 1017.7 hPa | - | - | - | - |
| 1778338806 | 26.11° C | 28% | 1017.6 hPa | - | - | - | - |
| 1778337906 | 26.11° C | 28% | 1017.3 hPa | - | - | - | - |
| 1778337006 | 25.56° C | 29% | 1017.1 hPa | - | - | - | - |
| 1778336105 | 26.11° C | 28% | 1017.3 hPa | - | - | - | - |
| 1778335264 | 25.56° C | 28% | 1017.3 hPa | - | - | - | - |
| 1778335205 | 25.56° C | 28% | 1017.3 hPa | - | - | - | - |
| 1778334304 | 25.56° C | 28% | 1017.4 hPa | - | - | - | - |
| 1778333404 | 25° C | 29% | 1017.6 hPa | - | - | - | - |
| 1778332504 | 25° C | 28% | 1017.6 hPa | - | - | - | - |
| 1778331603 | 23.89° C | 31% | 1018 hPa | - | - | - | - |
| 1778330703 | 23.89° C | 30% | 1018 hPa | - | - | - | - |
* Rain since midnight (hover to see other rain measurements)
** Current wind speed in m/s (hover to see current wind gust speed)